Find Starlink 4718

NORAD ID: 53773 Int'l Des: 2022-111 Owner: SPXS Country: US Constellation: starlink operational
LEOCIRCULAR

現在のビュー

3D地球を読み込み中...

About Starlink 4718

Starlink 4718 (NORAD 53773) is a starlink constellation satellite (v1.5) launched Sep 11, 2022 by SPXS of US. It operates in LEO, CIRCULAR orbit with a mass of 305.00 kg.

Starlink 4718について

説明を読み込み中...

次回通過

Passes for default location (London). Set your location on the main map for personalized predictions.

高度履歴

Loading altitude history...

軌道要素

1 53773U 22111A 26167.36592005 .00000469 00000-0 47560-4 0 9999
2 53773 53.1591 200.9768 0001025 81.4665 278.6442 15.08837204208743
Epoch: Jun 16, 2026 • Age: 9 hours

現在のステータス

高度 556.3 km
速度 7.58 km/s
衛星直下点 -46.76°S, 28.68°W
打ち上げ日 Sep 11, 2022
運用期間 3.7 years
タイプ internet

技術仕様

分類 Payload
質量 305.00 kg
乾燥質量 290.00 kg
総質量 305.00 kg
長さ 0.20 m
直径 2.80 m
スパン 9.00 m
形状 Box + pan
製造者 SPXS
バスタイプ Starlink
フェーズステータス In Orbit
所有者/国 SPXS/US

Most Searched